Time,TemperatureF,DewpointF,PressureIn,WindDirection,WindDirectionDegrees,WindSpeedMPH,WindSpeedGustMPH,Humidity,HourlyPrecipIn,Conditions,Clouds,dailyrainin,SoftwareType,DateUTC
2013-04-20 00:02:00,36.0,25.0,30.00,NNW,329,7.0,14.0,64,0.00,,,0.01,,2013-04-20 05:02:00,
2013-04-20 00:12:00,36.0,25.0,30.00,NNW,329,7.0,14.0,64,0.00,,,0.01,,2013-04-20 05:12:00,
2013-04-20 00:22:00,36.0,25.0,30.01,NW,319,6.0,14.0,63,0.00,,,0.01,,2013-04-20 05:22:00,
2013-04-20 00:32:00,36.0,25.0,30.01,WNW,298,5.0,12.0,64,0.00,,,0.01,,2013-04-20 05:32:00,
2013-04-20 00:42:00,36.0,25.0,30.01,WNW,298,5.0,12.0,64,0.00,,,0.01,,2013-04-20 05:42:00,
2013-04-20 00:52:00,35.0,24.0,30.02,WNW,298,5.0,12.0,65,0.00,,,0.01,,2013-04-20 05:52:00,
2013-04-20 01:02:00,35.0,25.0,30.03,WNW,290,5.0,9.0,66,0.00,,,0.01,,2013-04-20 06:02:00,
2013-04-20 01:12:00,35.0,25.0,30.03,WNW,290,5.0,9.0,66,0.00,,,0.01,,2013-04-20 06:12:00,
2013-04-20 01:21:00,35.0,25.0,30.03,NW,318,4.0,10.0,66,0.00,,,0.01,,2013-04-20 06:21:00,
2013-04-20 01:32:00,34.0,24.0,30.04,WNW,291,4.0,10.0,67,0.00,,,0.01,,2013-04-20 06:32:00,
2013-04-20 01:42:00,34.0,24.0,30.04,WNW,291,4.0,10.0,67,0.00,,,0.01,,2013-04-20 06:42:00,
2013-04-20 01:52:00,34.0,25.0,30.04,WNW,300,5.0,10.0,68,0.00,,,0.01,,2013-04-20 06:52:00,
2013-04-20 02:01:00,34.0,25.0,30.04,NNW,343,3.0,8.0,68,0.00,,,0.01,,2013-04-20 07:01:00,
2013-04-20 02:11:00,34.0,25.0,30.04,NNW,343,3.0,8.0,68,0.00,,,0.01,,2013-04-20 07:11:00,
2013-04-20 02:21:00,34.0,25.0,30.04,NW,315,2.0,8.0,69,0.00,,,0.01,,2013-04-20 07:21:00,
2013-04-20 02:32:00,33.0,24.0,30.04,West,271,4.0,9.0,70,0.00,,,0.01,,2013-04-20 07:32:00,
2013-04-20 02:42:00,33.0,24.0,30.05,NW,309,4.0,9.0,70,0.00,,,0.01,,2013-04-20 07:42:00,
2013-04-20 02:52:00,33.0,24.0,30.05,NW,309,4.0,9.0,70,0.00,,,0.01,,2013-04-20 07:52:00,
2013-04-20 03:01:00,33.0,25.0,30.04,NW,319,4.0,11.0,71,0.00,,,0.01,,2013-04-20 08:01:00,
2013-04-20 03:11:00,33.0,25.0,30.04,NW,319,4.0,11.0,71,0.00,,,0.01,,2013-04-20 08:11:00,
2013-04-20 03:21:00,33.0,25.0,30.05,NW,312,3.0,9.0,72,0.00,,,0.01,,2013-04-20 08:21:00,
2013-04-20 03:31:00,33.0,25.0,30.06,NW,320,1.0,8.0,72,0.00,,,0.01,,2013-04-20 08:31:00,
2013-04-20 03:42:00,33.0,25.0,30.06,NW,320,1.0,8.0,72,0.00,,,0.01,,2013-04-20 08:42:00,
2013-04-20 03:52:00,32.0,24.0,30.06,NW,324,2.0,5.0,73,0.00,,,0.01,,2013-04-20 08:52:00,
2013-04-20 04:01:00,32.0,25.0,30.07,NW,318,3.0,5.0,74,0.00,,,0.01,,2013-04-20 09:01:00,
2013-04-20 04:12:00,32.0,25.0,30.07,NW,318,3.0,5.0,74,0.00,,,0.01,,2013-04-20 09:12:00,
2013-04-20 04:21:00,32.0,25.0,30.07,WNW,283,2.0,5.0,74,0.00,,,0.00,,2013-04-20 09:21:00,
2013-04-20 04:33:00,32.0,25.0,30.08,WNW,283,0.0,6.0,75,0.00,,,0.00,,2013-04-20 09:33:00,
2013-04-20 04:43:00,32.0,25.0,30.08,WNW,283,0.0,6.0,75,0.00,,,0.00,,2013-04-20 09:43:00,
2013-04-20 04:53:00,31.0,24.0,30.09,NW,306,1.0,5.0,76,0.00,,,0.00,,2013-04-20 09:53:00,
2013-04-20 05:02:00,31.0,24.0,30.09,NW,325,1.0,4.0,76,0.00,,,0.00,,2013-04-20 10:02:00,
2013-04-20 05:12:00,31.0,24.0,30.09,NW,325,1.0,4.0,76,0.00,,,0.00,,2013-04-20 10:12:00,
2013-04-20 05:23:00,31.0,25.0,30.10,NNW,331,1.0,4.0,77,0.00,,,0.00,,2013-04-20 10:23:00,
2013-04-20 05:33:00,31.0,25.0,30.10,NNW,331,0.0,3.0,77,0.00,,,0.00,,2013-04-20 10:33:00,
2013-04-20 05:42:00,31.0,25.0,30.10,NNW,331,0.0,3.0,77,0.00,,,0.00,,2013-04-20 10:42:00,
2013-04-20 05:53:00,31.0,25.0,30.11,NNW,330,2.0,4.0,78,0.00,,,0.00,,2013-04-20 10:53:00,
2013-04-20 06:02:00,31.0,25.0,30.11,NNW,331,1.0,3.0,78,0.00,,,0.00,,2013-04-20 11:02:00,
2013-04-20 06:12:00,31.0,25.0,30.12,WNW,289,1.0,5.0,78,0.00,,,0.00,,2013-04-20 11:12:00,
2013-04-20 06:23:00,31.0,25.0,30.12,WNW,289,1.0,5.0,78,0.00,,,0.00,,2013-04-20 11:23:00,
2013-04-20 06:32:00,30.0,24.0,30.13,WNW,289,0.0,2.0,79,0.00,,,0.00,,2013-04-20 11:32:00,
2013-04-20 06:42:00,30.0,24.0,30.13,WNW,289,0.0,2.0,79,0.00,,,0.00,,2013-04-20 11:42:00,
2013-04-20 06:53:00,30.0,25.0,30.14,WNW,289,1.0,4.0,80,0.00,,,0.00,,2013-04-20 11:53:00,
2013-04-20 07:02:00,30.0,25.0,30.14,WNW,289,0.0,2.0,80,0.00,,,0.00,,2013-04-20 12:02:00,
2013-04-20 07:11:00,30.0,25.0,30.14,WNW,289,0.0,2.0,80,0.00,,,0.00,,2013-04-20 12:11:00,
2013-04-20 07:22:00,31.0,26.0,30.15,WNW,289,0.0,3.0,80,0.00,,,0.00,,2013-04-20 12:22:00,
2013-04-20 07:32:00,31.0,26.0,30.16,WNW,289,1.0,5.0,80,0.00,,,0.00,,2013-04-20 12:32:00,
2013-04-20 07:42:00,31.0,26.0,30.16,WNW,289,1.0,5.0,80,0.00,,,0.00,,2013-04-20 12:42:00,
2013-04-20 07:52:00,32.0,26.0,30.17,WNW,285,3.0,6.0,79,0.00,,,0.00,,2013-04-20 12:52:00,
2013-04-20 08:02:00,33.0,27.0,30.18,NW,324,3.0,5.0,77,0.00,,,0.00,,2013-04-20 13:02:00,
2013-04-20 08:11:00,34.0,27.0,30.19,NNW,343,4.0,6.0,76,0.00,,,0.00,,2013-04-20 13:11:00,
2013-04-20 08:21:00,34.0,27.0,30.19,NNW,343,4.0,6.0,76,0.00,,,0.00,,2013-04-20 13:21:00,
2013-04-20 08:32:00,34.0,27.0,30.19,WNW,294,5.0,8.0,74,0.00,,,0.00,,2013-04-20 13:32:00,
2013-04-20 08:42:00,34.0,27.0,30.19,WNW,294,5.0,8.0,74,0.00,,,0.00,,2013-04-20 13:42:00,
2013-04-20 08:52:00,35.0,28.0,30.20,NNW,347,3.0,7.0,74,0.00,,,0.00,,2013-04-20 13:52:00,
2013-04-20 09:02:00,35.0,28.0,30.21,NNE,15,1.0,5.0,74,0.00,,,0.00,,2013-04-20 14:02:00,
2013-04-20 09:11:00,35.0,28.0,30.21,NNE,15,1.0,5.0,74,0.00,,,0.00,,2013-04-20 14:11:00,
2013-04-20 09:21:00,36.0,28.0,30.22,NW,312,1.0,6.0,73,0.00,,,0.00,,2013-04-20 14:21:00,
2013-04-20 09:32:00,37.0,28.0,30.22,West,268,2.0,6.0,71,0.00,,,0.00,,2013-04-20 14:32:00,
2013-04-20 09:42:00,37.0,28.0,30.22,West,268,2.0,6.0,71,0.00,,,0.00,,2013-04-20 14:42:00,
2013-04-20 09:52:00,37.0,28.0,30.23,NNW,343,2.0,6.0,70,0.00,,,0.00,,2013-04-20 14:52:00,
2013-04-20 10:01:00,38.0,29.0,30.24,WNW,284,2.0,4.0,69,0.00,,,0.00,,2013-04-20 15:01:00,
2013-04-20 10:11:00,38.0,29.0,30.24,WNW,284,2.0,4.0,69,0.00,,,0.00,,2013-04-20 15:11:00,
2013-04-20 10:21:00,39.0,29.0,30.24,WNW,284,3.0,6.0,68,0.00,,,0.00,,2013-04-20 15:21:00,
2013-04-20 10:33:00,40.0,29.0,30.25,WNW,302,3.0,7.0,65,0.00,,,0.00,,2013-04-20 15:33:00,
2013-04-20 10:43:00,40.0,29.0,30.25,WNW,302,3.0,7.0,65,0.00,,,0.00,,2013-04-20 15:43:00,
2013-04-20 10:53:00,41.0,29.0,30.25,West,268,3.0,7.0,62,0.00,,,0.00,,2013-04-20 15:53:00,
2013-04-20 11:03:00,41.0,29.0,30.25,West,271,4.0,8.0,63,0.00,,,0.00,,2013-04-20 16:03:00,
2013-04-20 11:12:00,42.0,27.0,30.26,SSW,211,4.0,9.0,55,0.00,,,0.00,,2013-04-20 16:12:00,
2013-04-20 11:23:00,42.0,27.0,30.26,SSW,211,4.0,9.0,55,0.00,,,0.00,,2013-04-20 16:23:00,
2013-04-20 11:32:00,42.0,27.0,30.26,NW,307,3.0,7.0,56,0.00,,,0.00,,2013-04-20 16:32:00,
2013-04-20 11:42:00,42.0,27.0,30.26,NW,307,3.0,7.0,56,0.00,,,0.00,,2013-04-20 16:42:00,
2013-04-20 11:53:00,42.0,26.0,30.27,WNW,284,5.0,8.0,53,0.00,,,0.00,,2013-04-20 16:53:00,
2013-04-20 12:02:00,43.0,27.0,30.26,NW,304,5.0,8.0,52,0.00,,,0.00,,2013-04-20 17:02:00,
2013-04-20 12:12:00,43.0,27.0,30.26,NW,304,5.0,8.0,52,0.00,,,0.00,,2013-04-20 17:12:00,
2013-04-20 12:23:00,42.0,23.0,30.27,WNW,299,4.0,7.0,46,0.00,,,0.00,,2013-04-20 17:23:00,
2013-04-20 12:33:00,43.0,23.0,30.27,WNW,288,5.0,9.0,45,0.00,,,0.00,,2013-04-20 17:33:00,
2013-04-20 12:42:00,43.0,23.0,30.27,WNW,288,5.0,9.0,45,0.00,,,0.00,,2013-04-20 17:42:00,
2013-04-20 12:52:00,43.0,24.0,30.27,NNW,328,4.0,10.0,47,0.00,,,0.00,,2013-04-20 17:52:00,
2013-04-20 13:02:00,44.0,23.0,30.26,NNW,335,3.0,8.0,43,0.00,,,0.00,,2013-04-20 18:02:00,
2013-04-20 13:12:00,44.0,24.0,30.26,North,350,2.0,6.0,45,0.00,,,0.00,,2013-04-20 18:12:00,
2013-04-20 13:22:00,44.0,24.0,30.26,North,350,2.0,6.0,45,0.00,,,0.00,,2013-04-20 18:22:00,
2013-04-20 13:32:00,45.0,25.0,30.27,NNW,336,3.0,8.0,46,0.00,,,0.00,,2013-04-20 18:32:00,
2013-04-20 13:42:00,45.0,25.0,30.27,NNW,336,3.0,8.0,46,0.00,,,0.00,,2013-04-20 18:42:00,
2013-04-20 13:52:00,45.0,24.0,30.27,NW,315,3.0,8.0,44,0.00,,,0.00,,2013-04-20 18:52:00,
2013-04-20 14:01:00,46.0,24.0,30.27,NNW,327,4.0,8.0,42,0.00,,,0.00,,2013-04-20 19:01:00,
2013-04-20 14:11:00,45.0,22.0,30.27,North,5,3.0,9.0,39,0.00,,,0.00,,2013-04-20 19:11:00,
2013-04-20 14:21:00,45.0,22.0,30.27,North,5,3.0,9.0,39,0.00,,,0.00,,2013-04-20 19:21:00,
2013-04-20 14:32:00,47.0,28.0,30.27,NNW,333,3.0,6.0,47,0.00,,,0.00,,2013-04-20 19:32:00,
2013-04-20 14:42:00,47.0,22.0,30.27,North,5,1.0,6.0,37,0.00,,,0.00,,2013-04-20 19:42:00,
2013-04-20 14:52:00,47.0,22.0,30.27,North,5,1.0,6.0,37,0.00,,,0.00,,2013-04-20 19:52:00,
2013-04-20 15:02:00,47.0,26.0,30.27,NNW,342,3.0,9.0,44,0.00,,,0.00,,2013-04-20 20:02:00,
2013-04-20 15:12:00,47.0,23.0,30.27,NNE,24,2.0,9.0,39,0.00,,,0.00,,2013-04-20 20:12:00,
2013-04-20 15:21:00,47.0,23.0,30.27,NNE,24,2.0,9.0,39,0.00,,,0.00,,2013-04-20 20:21:00,
2013-04-20 15:32:00,48.0,28.0,30.27,NNE,30,1.0,5.0,45,0.00,,,0.00,,2013-04-20 20:32:00,
2013-04-20 15:42:00,48.0,28.0,30.27,NNE,30,1.0,5.0,45,0.00,,,0.00,,2013-04-20 20:42:00,
2013-04-20 15:52:00,48.0,23.0,30.26,North,5,3.0,7.0,37,0.00,,,0.00,,2013-04-20 20:52:00,
2013-04-20 16:01:00,48.0,22.0,30.26,NNW,337,3.0,7.0,36,0.00,,,0.00,,2013-04-20 21:01:00,
2013-04-20 16:12:00,48.0,22.0,30.26,NNW,337,3.0,7.0,36,0.00,,,0.00,,2013-04-20 21:12:00,
2013-04-20 16:21:00,49.0,23.0,30.26,NNW,342,0.0,13.0,36,0.00,,,0.00,,2013-04-20 21:21:00,
2013-04-20 16:33:00,49.0,21.0,30.26,NW,306,2.0,7.0,33,0.00,,,0.00,,2013-04-20 21:33:00,
2013-04-20 16:43:00,49.0,21.0,30.26,NW,306,2.0,7.0,33,0.00,,,0.00,,2013-04-20 21:43:00,
2013-04-20 16:53:00,49.0,20.0,30.26,WNW,298,2.0,7.0,32,0.00,,,0.00,,2013-04-20 21:53:00,
2013-04-20 17:02:00,49.0,23.0,30.26,North,360,1.0,5.0,35,0.00,,,0.00,,2013-04-20 22:02:00,
2013-04-20 17:12:00,49.0,23.0,30.26,North,360,1.0,5.0,35,0.00,,,0.00,,2013-04-20 22:12:00,
2013-04-20 17:22:00,50.0,22.0,30.26,NW,326,0.0,3.0,33,0.00,,,0.00,,2013-04-20 22:22:00,
2013-04-20 17:32:00,50.0,21.0,30.26,NNW,338,1.0,5.0,31,0.00,,,0.00,,2013-04-20 22:32:00,
2013-04-20 17:42:00,50.0,21.0,30.26,NNW,338,1.0,5.0,31,0.00,,,0.00,,2013-04-20 22:42:00,
2013-04-20 17:53:00,50.0,23.0,30.26,NNW,334,2.0,4.0,34,0.00,,,0.00,,2013-04-20 22:53:00,
2013-04-20 18:02:00,49.0,19.0,30.27,NNW,344,0.0,5.0,30,0.00,,,0.00,,2013-04-20 23:02:00,
2013-04-20 18:11:00,49.0,19.0,30.27,NNW,344,0.0,5.0,30,0.00,,,0.00,,2013-04-20 23:11:00,
2013-04-20 18:22:00,49.0,20.0,30.26,NNW,344,0.0,3.0,32,0.00,,,0.00,,2013-04-20 23:22:00,
2013-04-20 18:32:00,48.0,17.0,30.27,NNW,344,0.0,2.0,29,0.00,,,0.00,,2013-04-20 23:32:00,
2013-04-20 18:42:00,48.0,17.0,30.27,NNW,344,0.0,2.0,29,0.00,,,0.00,,2013-04-20 23:42:00,
2013-04-20 18:53:00,48.0,22.0,30.27,NNW,344,0.0,1.0,35,0.00,,,0.00,,2013-04-20 23:53:00,
2013-04-20 19:01:00,47.0,21.0,30.27,North,360,0.0,3.0,36,0.00,,,0.00,,2013-04-21 00:01:00,
2013-04-20 19:11:00,47.0,21.0,30.27,North,360,0.0,3.0,36,0.00,,,0.00,,2013-04-21 00:11:00,
2013-04-20 19:21:00,47.0,22.0,30.27,SE,134,0.0,4.0,37,0.00,,,0.00,,2013-04-21 00:21:00,
2013-04-20 19:32:00,46.0,22.0,30.28,SE,134,0.0,3.0,39,0.00,,,0.00,,2013-04-21 00:32:00,
2013-04-20 19:42:00,46.0,22.0,30.28,SE,134,0.0,3.0,39,0.00,,,0.00,,2013-04-21 00:42:00,
2013-04-20 19:52:00,45.0,22.0,30.28,SE,134,0.0,2.0,40,0.00,,,0.00,,2013-04-21 00:52:00,
2013-04-20 20:01:00,45.0,23.0,30.29,SE,134,1.0,4.0,42,0.00,,,0.00,,2013-04-21 01:01:00,
2013-04-20 20:11:00,45.0,23.0,30.29,SE,134,1.0,4.0,42,0.00,,,0.00,,2013-04-21 01:11:00,
2013-04-20 20:21:00,44.0,22.0,30.30,SE,134,0.0,1.0,42,0.00,,,0.00,,2013-04-21 01:21:00,
2013-04-20 20:31:00,43.0,26.0,30.30,SE,134,0.0,1.0,50,0.00,,,0.00,,2013-04-21 01:31:00,
2013-04-20 20:42:00,43.0,26.0,30.30,SE,134,0.0,1.0,50,0.00,,,0.00,,2013-04-21 01:42:00,
2013-04-20 20:52:00,42.0,23.0,30.30,SE,134,0.0,1.0,46,0.00,,,0.00,,2013-04-21 01:52:00,
2013-04-20 21:01:00,42.0,23.0,30.32,SE,134,0.0,1.0,47,0.00,,,0.00,,2013-04-21 02:01:00,
2013-04-20 21:11:00,42.0,23.0,30.32,SE,134,0.0,1.0,47,0.00,,,0.00,,2013-04-21 02:11:00,
2013-04-20 21:21:00,42.0,23.0,30.33,SE,134,1.0,3.0,47,0.00,,,0.00,,2013-04-21 02:21:00,
2013-04-20 21:32:00,41.0,23.0,30.33,SE,134,0.0,2.0,49,0.00,,,0.00,,2013-04-21 02:32:00,
2013-04-20 21:41:00,41.0,23.0,30.33,SE,134,0.0,2.0,49,0.00,,,0.00,,2013-04-21 02:41:00,
2013-04-20 21:52:00,41.0,25.0,30.34,SE,134,0.0,3.0,52,0.00,,,0.00,,2013-04-21 02:52:00,
2013-04-20 22:01:00,40.0,25.0,30.34,SE,134,1.0,3.0,54,0.00,,,0.00,,2013-04-21 03:01:00,
2013-04-20 22:11:00,40.0,25.0,30.34,SE,134,1.0,3.0,54,0.00,,,0.00,,2013-04-21 03:11:00,
2013-04-20 22:21:00,40.0,25.0,30.34,SE,134,1.0,3.0,55,0.00,,,0.00,,2013-04-21 03:21:00,
2013-04-20 22:33:00,40.0,26.0,30.33,SE,134,1.0,4.0,56,0.00,,,0.00,,2013-04-21 03:33:00,
2013-04-20 22:42:00,40.0,26.0,30.33,SE,134,1.0,4.0,56,0.00,,,0.00,,2013-04-21 03:42:00,
2013-04-20 22:52:00,40.0,26.0,30.33,ESE,120,2.0,6.0,57,0.00,,,0.00,,2013-04-21 03:52:00,
2013-04-20 23:02:00,40.0,25.0,30.34,SE,136,1.0,4.0,55,0.00,,,0.00,,2013-04-21 04:02:00,
2013-04-20 23:12:00,40.0,26.0,30.34,SE,138,1.0,4.0,56,0.00,,,0.00,,2013-04-21 04:12:00,
2013-04-20 23:22:00,40.0,26.0,30.34,SE,138,1.0,4.0,56,0.00,,,0.00,,2013-04-21 04:22:00,
2013-04-20 23:33:00,40.0,26.0,30.35,SE,136,2.0,7.0,56,0.00,,,0.00,,2013-04-21 04:33:00,
2013-04-20 23:42:00,40.0,26.0,30.35,SE,136,2.0,7.0,56,0.00,,,0.00,,2013-04-21 04:42:00,
2013-04-20 23:53:00,39.0,25.0,30.35,SE,136,1.0,4.0,58,0.00,,,0.00,,2013-04-21 04:53:00,